User: anonymous   Login
Location: Melbourne
(37.8170°S, 144.9670°E)
Time: 03:32:04
(UTC+11:00)
Language:

Cosmos 962 Rocket - Orbit

View from above orbital plane
View from above orbital plane
View from above satellite
View from above satellite

Ground track
Ground track

The orbit data is extracted from the following two-line orbital elements,

1 10461U 77107B   15060.51925733  .00000009  00000-0 -59859-5 0  9992
2 10461 082.9460 275.9883 0032895 337.1626 083.9055 13.76720863875373
Epoch (UTC): 01 March 2015 12:27:43
Eccentricity: 0.0032895
inclination: 82.9460°
perigee height: 951 km
apogee height: 1000 km
right ascension of ascending node: 275.9883°
argument of perigee: 337.1626°
revolutions per day: 13.76720863
mean anomaly at epoch: 83.9055°
orbit number at epoch: 87537

The dashed part of the orbit path shows where the satellite is in the earth's shadow,  

DLR